| time (UTC) | temp F | wind direction | speed MPH | gust MPH | rain 1hr in | rain 24hr in | rain mn in | humidity % | barometer mb |
| 20260505050119 | 56 | 0 | 0.0 | 0.0 | 0.00 | 0.00 | 0.00 | 60 | 1007.4 |
| 20260505041553 | 57 | 0 | 0.0 | 0.0 | 0.00 | 0.00 | 0.00 | 59 | 1007.1 |
| 20260505040055 | 57 | 0 | 0.0 | 0.0 | 0.00 | 0.00 | 0.00 | 58 | 1007.1 |
| 20260505034542 | 57 | 0 | 0.0 | 0.0 | 0.00 | 0.00 | 0.00 | 58 | 1007.0 |
| 20260505033042 | 58 | 0 | 0.0 | 0.0 | 0.00 | 0.00 | 0.00 | 57 | 1006.9 |
| 20260505031544 | 58 | 0 | 0.0 | 0.0 | 0.00 | 0.00 | 0.00 | 57 | 1007.1 |
| 20260505030043 | 58 | 0 | 0.0 | 0.0 | 0.00 | 0.00 | 0.00 | 56 | 1007.1 |
| 20260505024543 | 58 | 0 | 0.0 | 0.0 | 0.00 | 0.00 | 0.00 | 56 | 1007.3 |
| 20260505023045 | 59 | 0 | 0.0 | 0.0 | 0.00 | 0.00 | 0.00 | 55 | 1007.3 |
| 20260505021541 | 59 | 0 | 0.0 | 0.0 | 0.00 | 0.00 | 0.00 | 54 | 1007.3 |
| 20260505020038 | 59 | 0 | 0.0 | 0.0 | 0.00 | 0.00 | 0.00 | 54 | 1007.3 |
| 20260505014600 | 60 | 0 | 0.0 | 0.0 | 0.00 | 0.00 | 0.00 | 52 | 1007.3 |
| 20260505013043 | 60 | 0 | 0.0 | 0.0 | 0.00 | 0.00 | 0.00 | 50 | 1007.2 |
| 20260505011541 | 60 | 0 | 0.0 | 0.0 | 0.00 | 0.00 | 0.00 | 50 | 1007.1 |
| 20260505010041 | 61 | 0 | 0.0 | 0.0 | 0.00 | 0.00 | 0.00 | 49 | 1006.9 |
| 20260505004542 | 61 | 0 | 0.0 | 0.0 | 0.00 | 0.00 | 0.00 | 48 | 1006.8 |
| 20260505003044 | 61 | 0 | 0.0 | 0.0 | 0.00 | 0.00 | 0.00 | 49 | 1006.7 |
| 20260505001545 | 62 | 0 | 0.0 | 0.0 | 0.00 | 0.00 | 0.00 | 47 | 1006.7 |
| 20260505000051 | 63 | 0 | 0.0 | 0.0 | 0.00 | 0.00 | 0.00 | 45 | 1006.6 |
| 20260504234605 | 63 | 0 | 0.0 | 0.0 | 0.00 | 0.00 | 0.00 | 45 | 1006.5 |
| 20260504233047 | 64 | 0 | 0.0 | 0.0 | 0.00 | 0.00 | 0.00 | 43 | 1006.3 |
| 20260504231542 | 65 | 0 | 0.0 | 0.0 | 0.00 | 0.00 | 0.00 | 41 | 1006.2 |
| 20260504230044 | 65 | 0 | 0.0 | 0.0 | 0.00 | 0.00 | 0.00 | 40 | 1006.2 |
| 20260504224553 | 66 | 0 | 0.0 | 0.0 | 0.00 | 0.00 | 0.00 | 39 | 1006.2 |
| 20260504223043 | 66 | 0 | 0.0 | 0.0 | 0.00 | 0.00 | 0.00 | 42 | 1006.0 |
| 20260504221546 | 66 | 0 | 0.0 | 0.0 | 0.00 | 0.00 | 0.00 | 42 | 1006.2 |
| 20260504220046 | 66 | 0 | 0.0 | 0.0 | 0.00 | 0.00 | 0.00 | 40 | 1006.1 |
| 20260504214543 | 67 | 0 | 0.0 | 0.0 | 0.00 | 0.00 | 0.00 | 38 | 1006.1 |
| 20260504213100 | 67 | 0 | 0.0 | 0.0 | 0.00 | 0.00 | 0.00 | 37 | 1006.2 |
| 20260504211540 | 67 | 0 | 0.0 | 0.0 | 0.00 | 0.00 | 0.00 | 39 | 1006.2 |
| 20260504210049 | 67 | 0 | 0.0 | 0.0 | 0.00 | 0.00 | 0.00 | 37 | 1006.6 |
| 20260504204541 | 68 | 0 | 0.0 | 0.0 | 0.00 | 0.00 | 0.00 | 37 | 1006.6 |
| 20260504203049 | 68 | 0 | 0.0 | 0.0 | 0.00 | 0.00 | 0.00 | 35 | 1006.9 |
| 20260504201542 | 69 | 0 | 0.0 | 0.0 | 0.00 | 0.00 | 0.00 | 36 | 1006.9 |
| 20260504200041 | 68 | 0 | 0.0 | 0.0 | 0.00 | 0.00 | 0.00 | 35 | 1007.2 |
| 20260504194547 | 68 | 0 | 0.0 | 0.0 | 0.00 | 0.00 | 0.00 | 36 | 1007.2 |
| 20260504193045 | 67 | 0 | 0.0 | 0.0 | 0.00 | 0.00 | 0.00 | 38 | 1007.2 |
| 20260504191535 | 68 | 0 | 0.0 | 0.0 | 0.00 | 0.00 | 0.00 | 38 | 1007.6 |
| 20260504190046 | 67 | 0 | 0.0 | 0.0 | 0.00 | 0.00 | 0.00 | 37 | 1007.5 |
| 20260504184540 | 67 | 0 | 0.0 | 0.0 | 0.00 | 0.00 | 0.00 | 37 | 1007.7 |
| 20260504183037 | 66 | 0 | 0.0 | 0.0 | 0.00 | 0.00 | 0.00 | 38 | 1007.8 |
| 20260504181536 | 67 | 0 | 0.0 | 0.0 | 0.00 | 0.00 | 0.00 | 37 | 1007.6 |
| 20260504180047 | 66 | 0 | 0.0 | 0.0 | 0.00 | 0.00 | 0.00 | 40 | 1007.9 |
| 20260504174536 | 65 | 0 | 0.0 | 0.0 | 0.00 | 0.00 | 0.00 | 40 | 1008.0 |
| 20260504173046 | 64 | 0 | 0.0 | 0.0 | 0.00 | 0.00 | 0.00 | 41 | 1008.1 |
| 20260504171537 | 65 | 0 | 0.0 | 0.0 | 0.00 | 0.00 | 0.00 | 41 | 1008.3 |
| 20260504090106 | 42 | 0 | 0.0 | 0.0 | 0.00 | 0.00 | 0.00 | 63 | 1010.5 |
| 20260504081539 | 44 | 0 | 0.0 | 0.0 | 0.00 | 0.00 | 0.00 | 59 | 1010.4 |